Home   Weather   Hamburg   Past weeks

Flag for Germany Past Weather in Hamburg, Hamburg, Germany — Yesterday and Last 2 Weeks

Now
43 °F

Passing clouds.


Feels Like: 36 °F
Forecast: 37 / 51 °F
Wind: 14 mph from Northwest

Location: Hamburg-Fuhlsbuettel

Current Time: Apr 23, 2017 at 9:45:32 pm

Latest Report: Apr 23, 2017 at 8:50 pm


Visibility: N/A

Pressure: 30.12 "Hg

Humidity: 71%

Dew Point: 34 °F

Location of HamburgLocation

Past Weather in Hamburg — Graph

°F

Hamburg Temperature Yesterday

Maximum temperature yesterday: 48 °F (at 12:50 pm)
Minimum temperature yesterday: 41 °F (at 3:20 am)
Average temperature yesterday: 43 °F

High & Low Weather Summary for the Past Weeks

 TemperatureHumidityPressure
High66 °F (Apr 9, 3:50 pm)100% (Apr 9, 2:20 am)30.63 "Hg (Apr 9, 2:20 am)
Low25 °F (Apr 19, 5:50 am)35% (Apr 9, 5:20 pm)29.71 "Hg (Apr 15, 7:20 am)
Average44 °F78%30.10 "Hg
* Reported Apr 8 8:20 pm — Apr 23 8:20 pm, Hamburg, Weather by CustomWeather, © 2017

Note: Actual official high and low records may vary slightly from our data, if they occured in-between our weather recording intervals... More about our weather records

Advertising

Hamburg Weather History for the Previous 24 Hours

Scroll right to see more
 ConditionsComfort  
Time TempWeatherWind HumidityBarometerVisibility
8:20 pm
Sun, Apr 23
43 °FScattered clouds.14 mph71%30.12 "HgN/A
7:50 pm43 °FPartly sunny.14 mph66%30.12 "HgN/A
7:20 pm45 °FScattered clouds.15 mph61%30.12 "HgN/A
6:50 pm45 °FScattered clouds.17 mph66%30.12 "HgN/A
6:20 pm45 °FScattered showers. Scattered clouds.20 mph66%30.12 "HgN/A
5:50 pm46 °FScattered clouds.20 mph62%30.12 "HgN/A
5:20 pm45 °FScattered showers. Scattered clouds.16 mph66%30.12 "HgN/A
4:50 pm45 °FScattered clouds.16 mph66%30.12 "HgN/A
4:20 pm45 °FScattered showers. Partly sunny.20 mph66%30.12 "HgN/A
3:50 pm45 °FSprinkles. Broken clouds.24 mph66%30.12 "HgN/A
3:20 pm48 °FScattered clouds.22 mph50%30.12 "HgN/A
2:50 pm48 °FScattered clouds.23 mph58%30.12 "HgN/A
2:20 pm48 °FScattered clouds.20 mph54%30.12 "HgN/A
1:50 pm45 °FSprinkles. Scattered clouds.16 mph71%30.12 "HgN/A
1:20 pm45 °FScattered clouds.17 mph61%30.12 "HgN/A
12:50 pm45 °FScattered showers. Scattered clouds.23 mph57%30.12 "HgN/A
12:20 pm45 °FSprinkles. Scattered clouds.17 mph71%30.12 "HgN/A
11:50 am46 °FScattered showers. Scattered clouds.23 mph62%30.12 "HgN/A
11:20 am43 °FScattered showers. Partly sunny.13 mph71%30.12 "HgN/A
10:50 am43 °FSprinkles. Broken clouds.18 mph66%30.12 "HgN/A
10:20 am45 °FScattered showers. Partly sunny.8 mph76%30.09 "HgN/A
9:50 am41 °FBroken clouds.10 mph81%30.12 "HgN/A
9:20 am41 °FSprinkles. Partly sunny.13 mph81%30.12 "HgN/A
8:50 am41 °FPartly sunny.12 mph81%30.09 "HgN/A
8:20 am39 °FScattered showers. Partly sunny.9 mph87%30.09 "HgN/A
7:50 am41 °FScattered showers. Scattered clouds.7 mph87%30.09 "HgN/A
7:20 am41 °FBroken clouds.7 mph81%30.09 "HgN/A
6:50 am39 °FScattered showers. Partly sunny.9 mph87%30.09 "HgN/A
6:20 am39 °FSprinkles. Scattered clouds.13 mph87%30.09 "HgN/A
5:50 am41 °FSprinkles. Passing clouds.10 mph81%30.09 "HgN/A
4:50 am41 °FPassing clouds.12 mph81%30.09 "HgN/A
4:20 am41 °FPassing clouds.10 mph81%30.07 "HgN/A
3:50 am41 °FPassing clouds.13 mph81%30.09 "HgN/A
3:20 am41 °FPassing clouds.12 mph87%30.07 "HgN/A
2:50 am41 °FPassing clouds.13 mph87%30.07 "HgN/A
2:20 am43 °FPassing clouds.10 mph81%30.09 "HgN/A
1:50 am43 °FSprinkles. Passing clouds.10 mph81%30.09 "HgN/A
1:20 am41 °FPassing clouds.9 mph87%30.09 "HgN/A
12:50 am41 °FPassing clouds.12 mph87%30.09 "HgN/A
12:20 am41 °FPassing clouds.12 mph87%30.09 "HgN/A
11:50 pm
Sat, Apr 22
41 °FPassing clouds.10 mph81%30.09 "HgN/A
11:20 pm41 °FPassing clouds.13 mph81%30.09 "HgN/A
10:50 pm41 °FPassing clouds.13 mph81%30.09 "HgN/A
10:20 pm43 °FPassing clouds.13 mph76%30.07 "HgN/A
9:50 pm43 °FPassing clouds.13 mph76%30.07 "HgN/A
Weather by CustomWeather, © 2017

See weather overviewHow to use our weather pages